DRAGON CRS-15 DEB (43523 NORAD) Tracking and Keplerian Element Data

This shows tracking and keplerian element data for the satellite.

Feedback or suggestion? Click here.




ElementValue
Catalog43523
NameDRAGON CRS-15 DEB
Epoch Orbit187
Epoch Day192.16755092
Epoch Year2018
RAAN255.1452
Inclination51.6335
Eccentricity0.0006841
Argument of Perigee109.876
Mean Anonmoly250.6309
Mean Motion16.44590104
Decay Rate0.34015475
L11 43523U 18055B 18192.16755092 .34015475 12490-4 10517-2 0 9997
L22 43523 51.6335 255.1452 0006841 109.8760 250.6309 16.44590104 1871



Live tracking and technical data element details for DRAGON CRS-15 DEB (NORAD 43523). DRAGON CRS-15 DEB can be tracked NOW for your location showing map with azimuth and elevation plus other details from your city location.







IsCatalogInMostPopularTable: catalog: 43523, numindb: 606
Update: records affected: 1



GetName: 43523 DRAGON CRS-15 DEB

Hit Count: updated at: Tue, 03 Dec 2024 02:50:59 GMT